Time,TemperatureF,DewpointF,PressureIn,WindDirection,WindDirectionDegrees,WindSpeedMPH,WindSpeedGustMPH,Humidity,HourlyPrecipIn,Conditions,Clouds,dailyrainin,SoftwareType,DateUTC
2013-07-24 00:11:00,79.6,70.0,29.61,East,82,1.0,3.0,73,0.00,,,0.00,weatherlink.com 1.10,2013-07-24 04:11:00,
2013-07-24 00:26:00,79.3,70.0,29.61,NE,39,1.0,4.0,74,0.00,,,0.00,weatherlink.com 1.10,2013-07-24 04:26:00,
2013-07-24 00:41:00,79.1,70.0,29.62,ESE,111,1.0,3.0,74,0.00,,,0.00,weatherlink.com 1.10,2013-07-24 04:41:00,
2013-07-24 00:56:00,78.9,70.0,29.62,North,6,2.0,3.0,74,0.00,,,0.00,weatherlink.com 1.10,2013-07-24 04:56:00,
2013-07-24 01:11:00,78.5,70.0,29.62,NE,43,0.0,3.0,75,0.00,,,0.00,weatherlink.com 1.10,2013-07-24 05:11:00,
2013-07-24 01:26:00,78.3,70.0,29.62,ESE,113,1.0,2.0,75,0.00,,,0.00,weatherlink.com 1.10,2013-07-24 05:26:00,
2013-07-24 01:41:00,78.0,70.0,29.61,SE,143,1.0,2.0,76,0.00,,,0.00,weatherlink.com 1.10,2013-07-24 05:41:00,
2013-07-24 01:56:00,77.7,70.0,29.61,East,98,0.0,2.0,76,0.00,,,0.00,weatherlink.com 1.10,2013-07-24 05:56:00,
2013-07-24 02:11:00,77.6,70.0,29.61,ESE,113,0.0,0.0,76,0.00,,,0.00,weatherlink.com 1.10,2013-07-24 06:11:00,
2013-07-24 02:26:00,77.5,69.0,29.61,SE,127,0.0,1.0,76,0.00,,,0.00,weatherlink.com 1.10,2013-07-24 06:26:00,
2013-07-24 02:41:00,77.4,70.0,29.61,ESE,123,0.0,3.0,77,0.00,,,0.00,weatherlink.com 1.10,2013-07-24 06:41:00,
2013-07-24 02:57:00,77.3,70.0,29.61,SE,138,0.0,2.0,78,0.00,,,0.00,weatherlink.com 1.10,2013-07-24 06:57:00,
2013-07-24 03:12:00,77.0,70.0,29.61,East,79,0.0,2.0,79,0.00,,,0.00,weatherlink.com 1.10,2013-07-24 07:12:00,
2013-07-24 03:27:00,76.8,70.0,29.61,ESE,110,0.0,0.0,80,0.00,,,0.00,weatherlink.com 1.10,2013-07-24 07:27:00,
2013-07-24 03:42:00,76.2,70.0,29.60,ESE,110,0.0,0.0,80,0.00,,,0.00,weatherlink.com 1.10,2013-07-24 07:42:00,
2013-07-24 03:57:00,76.6,70.0,29.61,SSE,158,0.0,2.0,81,0.00,,,0.00,weatherlink.com 1.10,2013-07-24 07:57:00,
2013-07-24 04:12:00,76.7,71.0,29.60,SE,143,0.0,0.0,81,0.00,,,0.00,weatherlink.com 1.10,2013-07-24 08:12:00,
2013-07-24 04:27:00,76.6,70.0,29.61,SE,129,0.0,3.0,80,0.00,,,0.00,weatherlink.com 1.10,2013-07-24 08:27:00,
2013-07-24 04:42:00,76.3,70.0,29.61,SE,143,0.0,2.0,80,0.00,,,0.00,weatherlink.com 1.10,2013-07-24 08:42:00,
2013-07-24 04:57:00,76.1,70.0,29.61,SE,145,0.0,2.0,80,0.00,,,0.00,weatherlink.com 1.10,2013-07-24 08:57:00,
2013-07-24 05:12:00,75.8,70.0,29.61,SE,146,0.0,2.0,81,0.00,,,0.00,weatherlink.com 1.10,2013-07-24 09:12:00,
2013-07-24 05:27:00,75.1,69.0,29.61,SSE,152,0.0,1.0,81,0.00,,,0.00,weatherlink.com 1.10,2013-07-24 09:27:00,
2013-07-24 05:42:00,75.0,69.0,29.62,SE,134,1.0,3.0,81,0.00,,,0.00,weatherlink.com 1.10,2013-07-24 09:42:00,
2013-07-24 05:57:00,75.0,69.0,29.63,ESE,120,1.0,1.0,81,0.00,,,0.00,weatherlink.com 1.10,2013-07-24 09:57:00,
2013-07-24 06:12:00,75.1,69.0,29.64,ENE,57,0.0,1.0,81,0.00,,,0.00,weatherlink.com 1.10,2013-07-24 10:12:00,
2013-07-24 06:27:00,75.0,69.0,29.64,SE,146,2.0,2.0,81,0.00,,,0.00,weatherlink.com 1.10,2013-07-24 10:27:00,
2013-07-24 06:42:00,74.9,69.0,29.65,NE,39,1.0,2.0,81,0.00,,,0.00,weatherlink.com 1.10,2013-07-24 10:42:00,
2013-07-24 06:57:00,74.8,69.0,29.65,SE,143,2.0,3.0,82,0.00,,,0.00,weatherlink.com 1.10,2013-07-24 10:57:00,
2013-07-24 07:12:00,75.1,69.0,29.65,SE,138,1.0,3.0,80,0.00,,,0.00,weatherlink.com 1.10,2013-07-24 11:12:00,
2013-07-24 07:27:00,75.7,69.0,29.66,NNE,19,2.0,4.0,79,0.00,,,0.00,weatherlink.com 1.10,2013-07-24 11:27:00,
2013-07-24 07:42:00,76.2,68.0,29.67,North,355,2.0,7.0,76,0.00,,,0.00,weatherlink.com 1.10,2013-07-24 11:42:00,
2013-07-24 07:57:00,76.9,68.0,29.67,NE,37,3.0,8.0,73,0.00,,,0.00,weatherlink.com 1.10,2013-07-24 11:57:00,
2013-07-24 08:12:00,77.8,68.0,29.68,NNE,21,3.0,4.0,72,0.00,,,0.00,weatherlink.com 1.10,2013-07-24 12:12:00,
2013-07-24 08:27:00,78.6,68.0,29.68,NNE,29,3.0,5.0,69,0.00,,,0.00,weatherlink.com 1.10,2013-07-24 12:27:00,
2013-07-24 08:42:00,79.2,67.0,29.68,North,3,4.0,7.0,66,0.00,,,0.00,weatherlink.com 1.10,2013-07-24 12:42:00,
2013-07-24 08:57:00,79.7,67.0,29.69,NNW,337,4.0,9.0,66,0.00,,,0.00,weatherlink.com 1.10,2013-07-24 12:57:00,
2013-07-24 09:12:00,80.0,68.0,29.70,North,359,3.0,8.0,67,0.00,,,0.00,weatherlink.com 1.10,2013-07-24 13:12:00,
2013-07-24 09:27:00,81.2,68.0,29.70,ESE,120,1.0,6.0,64,0.00,,,0.00,weatherlink.com 1.10,2013-07-24 13:27:00,
2013-07-24 09:42:00,81.9,69.0,29.70,NNE,32,2.0,6.0,64,0.00,,,0.00,weatherlink.com 1.10,2013-07-24 13:42:00,
2013-07-24 09:58:00,82.9,68.0,29.70,North,4,4.0,4.0,61,0.00,,,0.00,weatherlink.com 1.10,2013-07-24 13:58:00,
2013-07-24 10:13:00,83.0,68.0,29.70,ENE,66,1.0,4.0,60,0.00,,,0.00,weatherlink.com 1.10,2013-07-24 14:13:00,
2013-07-24 10:28:00,83.3,68.0,29.71,ENE,73,4.0,4.0,60,0.00,,,0.00,weatherlink.com 1.10,2013-07-24 14:28:00,
2013-07-24 10:43:00,83.8,68.0,29.71,NW,316,5.0,5.0,60,0.00,,,0.00,weatherlink.com 1.10,2013-07-24 14:43:00,
2013-07-24 10:58:00,83.9,68.0,29.72,NE,50,2.0,5.0,60,0.00,,,0.00,weatherlink.com 1.10,2013-07-24 14:58:00,
2013-07-24 11:13:00,84.4,69.0,29.73,NNE,26,3.0,6.0,60,0.00,,,0.00,weatherlink.com 1.10,2013-07-24 15:13:00,
2013-07-24 11:28:00,83.6,69.0,29.74,ENE,74,1.0,7.0,61,0.00,,,0.00,weatherlink.com 1.10,2013-07-24 15:28:00,
2013-07-24 11:43:00,82.3,68.0,29.74,NE,43,3.0,8.0,63,0.00,,,0.00,weatherlink.com 1.10,2013-07-24 15:43:00,
2013-07-24 11:58:00,81.0,67.0,29.75,NNE,26,5.0,10.0,62,0.00,,,0.00,weatherlink.com 1.10,2013-07-24 15:58:00,
2013-07-24 12:13:00,80.6,66.0,29.75,NNE,21,3.0,8.0,62,0.00,,,0.00,weatherlink.com 1.10,2013-07-24 16:13:00,
2013-07-24 12:28:00,80.8,66.0,29.75,North,352,2.0,8.0,62,0.00,,,0.00,weatherlink.com 1.10,2013-07-24 16:28:00,
2013-07-24 12:43:00,81.1,67.0,29.75,North,354,2.0,7.0,62,0.00,,,0.00,weatherlink.com 1.10,2013-07-24 16:43:00,
2013-07-24 12:58:00,81.8,66.0,29.75,NNE,25,4.0,7.0,59,0.00,,,0.00,weatherlink.com 1.10,2013-07-24 16:58:00,
2013-07-24 13:13:00,81.8,66.0,29.75,NNW,342,3.0,7.0,59,0.00,,,0.00,weatherlink.com 1.10,2013-07-24 17:13:00,
2013-07-24 13:28:00,82.7,66.0,29.75,NE,56,1.0,7.0,58,0.00,,,0.00,weatherlink.com 1.10,2013-07-24 17:28:00,
2013-07-24 13:43:00,83.9,66.0,29.75,NNW,329,3.0,7.0,56,0.00,,,0.00,weatherlink.com 1.10,2013-07-24 17:43:00,
2013-07-24 13:58:00,83.7,66.0,29.75,NNE,29,3.0,9.0,56,0.00,,,0.00,weatherlink.com 1.10,2013-07-24 17:58:00,
2013-07-24 14:13:00,84.5,67.0,29.76,NNE,25,3.0,5.0,56,0.00,,,0.00,weatherlink.com 1.10,2013-07-24 18:13:00,
2013-07-24 14:28:00,84.2,66.0,29.77,NW,313,2.0,7.0,54,0.00,,,0.00,weatherlink.com 1.10,2013-07-24 18:28:00,
2013-07-24 14:43:00,84.3,65.0,29.77,ENE,75,1.0,6.0,53,0.00,,,0.00,weatherlink.com 1.10,2013-07-24 18:43:00,
2013-07-24 14:58:00,84.3,65.0,29.78,NNE,15,1.0,6.0,53,0.00,,,0.00,weatherlink.com 1.10,2013-07-24 18:58:00,
2013-07-24 15:13:00,85.2,65.0,29.77,North,356,2.0,7.0,51,0.00,,,0.00,weatherlink.com 1.10,2013-07-24 19:13:00,
2013-07-24 15:28:00,84.7,65.0,29.77,NE,34,5.0,6.0,52,0.00,,,0.00,weatherlink.com 1.10,2013-07-24 19:28:00,
2013-07-24 15:43:00,83.3,65.0,29.77,ENE,66,3.0,7.0,54,0.00,,,0.00,weatherlink.com 1.10,2013-07-24 19:43:00,
2013-07-24 16:13:00,82.7,64.0,29.77,NE,37,1.0,6.0,53,0.00,,,0.00,weatherlink.com 1.10,2013-07-24 20:13:00,
2013-07-24 16:28:00,83.5,64.0,29.77,NNE,22,6.0,6.0,52,0.00,,,0.00,weatherlink.com 1.10,2013-07-24 20:28:00,
2013-07-24 16:43:00,82.1,64.0,29.77,NNE,20,2.0,6.0,54,0.00,,,0.00,weatherlink.com 1.10,2013-07-24 20:43:00,
2013-07-24 16:58:00,81.4,63.0,29.77,NNE,27,3.0,8.0,54,0.00,,,0.00,weatherlink.com 1.10,2013-07-24 20:58:00,
2013-07-24 17:13:00,80.9,63.0,29.77,NNE,25,1.0,7.0,55,0.00,,,0.00,weatherlink.com 1.10,2013-07-24 21:13:00,
2013-07-24 17:28:00,81.7,63.0,29.77,NNW,340,2.0,5.0,53,0.00,,,0.00,weatherlink.com 1.10,2013-07-24 21:28:00,
2013-07-24 17:43:00,80.9,62.0,29.78,NNW,340,3.0,6.0,53,0.00,,,0.00,weatherlink.com 1.10,2013-07-24 21:43:00,
2013-07-24 17:58:00,81.1,62.0,29.78,NNE,32,1.0,5.0,53,0.00,,,0.00,weatherlink.com 1.10,2013-07-24 21:58:00,
2013-07-24 18:13:00,80.8,62.0,29.78,NE,44,3.0,5.0,53,0.00,,,0.00,weatherlink.com 1.10,2013-07-24 22:13:00,
2013-07-24 18:28:00,80.3,61.0,29.79,NE,37,1.0,4.0,52,0.00,,,0.00,weatherlink.com 1.10,2013-07-24 22:28:00,
2013-07-24 18:43:00,79.6,61.0,29.79,NNW,335,3.0,9.0,53,0.00,,,0.00,weatherlink.com 1.10,2013-07-24 22:43:00,
2013-07-24 18:58:00,79.2,59.0,29.80,ENE,57,2.0,9.0,51,0.00,,,0.00,weatherlink.com 1.10,2013-07-24 22:58:00,
2013-07-24 19:13:00,78.8,60.0,29.81,NNE,28,2.0,8.0,52,0.00,,,0.00,weatherlink.com 1.10,2013-07-24 23:13:00,
2013-07-24 19:28:00,78.4,59.0,29.82,NNE,17,6.0,7.0,51,0.00,,,0.00,weatherlink.com 1.10,2013-07-24 23:28:00,
2013-07-24 19:43:00,78.1,59.0,29.82,NE,39,0.0,5.0,53,0.00,,,0.00,weatherlink.com 1.10,2013-07-24 23:43:00,
2013-07-24 19:59:00,77.5,59.0,29.83,North,360,3.0,7.0,53,0.00,,,0.00,weatherlink.com 1.10,2013-07-24 23:59:00,
2013-07-24 20:14:00,76.8,59.0,29.84,NNE,29,0.0,6.0,54,0.00,,,0.00,weatherlink.com 1.10,2013-07-25 00:14:00,
2013-07-24 20:29:00,76.2,58.0,29.84,WSW,238,3.0,8.0,54,0.00,,,0.00,weatherlink.com 1.10,2013-07-25 00:29:00,
2013-07-24 20:44:00,75.3,58.0,29.85,NNE,32,2.0,8.0,55,0.00,,,0.00,weatherlink.com 1.10,2013-07-25 00:44:00,
2013-07-24 20:59:00,74.7,58.0,29.86,NNE,32,1.0,8.0,56,0.00,,,0.00,weatherlink.com 1.10,2013-07-25 00:59:00,
2013-07-24 21:14:00,74.1,58.0,29.87,NNE,12,4.0,6.0,57,0.00,,,0.00,weatherlink.com 1.10,2013-07-25 01:14:00,
2013-07-24 21:29:00,73.4,58.0,29.88,NE,51,2.0,7.0,58,0.00,,,0.00,weatherlink.com 1.10,2013-07-25 01:29:00,
2013-07-24 21:44:00,72.9,58.0,29.88,NNW,335,5.0,9.0,59,0.00,,,0.00,weatherlink.com 1.10,2013-07-25 01:44:00,
2013-07-24 21:59:00,72.3,58.0,29.89,NNE,28,4.0,10.0,60,0.00,,,0.00,weatherlink.com 1.10,2013-07-25 01:59:00,
2013-07-24 22:14:00,71.7,57.0,29.89,NNE,20,4.0,7.0,60,0.00,,,0.00,weatherlink.com 1.10,2013-07-25 02:14:00,
2013-07-24 22:29:00,71.2,56.0,29.90,NW,314,2.0,10.0,60,0.00,,,0.00,weatherlink.com 1.10,2013-07-25 02:29:00,
2013-07-24 22:44:00,71.0,57.0,29.91,NNE,32,1.0,6.0,61,0.00,,,0.00,weatherlink.com 1.10,2013-07-25 02:44:00,
2013-07-24 22:59:00,70.9,56.0,29.91,NNW,345,5.0,9.0,59,0.00,,,0.00,weatherlink.com 1.10,2013-07-25 02:59:00,
2013-07-24 23:14:00,70.8,55.0,29.91,NNW,340,3.0,7.0,58,0.00,,,0.00,weatherlink.com 1.10,2013-07-25 03:14:00,
2013-07-24 23:29:00,70.4,55.0,29.92,WNW,287,3.0,7.0,58,0.00,,,0.00,weatherlink.com 1.10,2013-07-25 03:29:00,
2013-07-24 23:44:00,69.7,54.0,29.92,NE,36,0.0,9.0,58,0.00,,,0.00,weatherlink.com 1.10,2013-07-25 03:44:00,
2013-07-24 23:59:00,69.3,54.0,29.92,NW,323,2.0,9.0,58,0.00,,,0.00,weatherlink.com 1.10,2013-07-25 03:59:00,